User: anonymous   Login
Location: Unspecified
(0.0000°N, 0.0000°E)
Time: 14:31:09
(UTC+00:00)
Language:

USA 229 - Orbit

View from above orbital plane
View from above orbital plane
View from above satellite
View from above satellite

Ground track
Ground track

The orbit data is extracted from the following two-line orbital elements,

1 37386U 11014A   15061.89886697 0.00000000  00000-0  00000-0 0    01
2 37386  63.4425 346.3531 0010004 139.2828 220.7171 13.40674365    05
Epoch (UTC): 02 March 2015 21:34:22
Eccentricity: 0.0010004
inclination: 63.4425°
perigee height: 1099 km
apogee height: 1114 km
right ascension of ascending node: 346.3531°
argument of perigee: 139.2828°
revolutions per day: 13.40674365
mean anomaly at epoch: 220.7171°
orbit number at epoch: 0

The dashed part of the orbit path shows where the satellite is in the earth's shadow,  

DLR